SL-19 R/B

Satellite information

Favourite Embed

Satellite Type and Status

ROCKET BODYIN ORBIT

Key statistics

Satellite SL-19 R/B at a glance.

Uptime

5886

Days in orbit

Revolutions

≈ 14.9

Per day

Orbit

SSO

Sun Synchronous Orbit

Inclination

98.4

Latest

Satellite identification and parameters

Extended collection of information and parameters for SL-19 R/B.

Object identification

Identified? True

Debris? False

Object name: SL-19 R/B

International designator: 2009-059D

Object number (NORAD): 36039

Object ID (CCSDS): 36039

Country: COMMONWEALTH OF INDEPENDENT STATES (CIS)

Current information (Y/N): Y

RCS size: LARGE

Orbital parameters

Period: 96.336 minutes

Inclination: 98.3615 deg

SMA: 6961.206 km

Apoapsis: 669.076 km

Periapsis: 497.067 km

RAAN: 237.2864 deg

Eccentricy: 0.01235479

Argument of periapsis: 253.6258 deg

Mean anomaly: 105.1348 deg

Mean motion: 14.94775588 rev/day

Mean motion (dot): 0.00002085 rev/day2

B* drag term: 0.00017097375 1/REarth

Two-line elements (TLE)

Creation date: Dec. 14, 2025, 3:07 a.m.

Reference frame: TEME

Reference center: EARTH

Epoch: Dec. 13, 2025, 4:33 p.m. UTC

TLE line 0: 0 SL-19 R/B

TLE line 1: 1 36039U 09059D 25347.68975450 .00002085 00000-0 17097-3 0 9991

TLE line 2: 2 36039 98.3615 237.2864 0123548 253.6258 105.1348 14.94775588874909

Live tracking on map

Real-time ground track for satellite SL-19 R/B.

In-orbit conjunctions

A list of the most updated potential collisions computed for object SL-19 R/B.

Target Orbit TCA Probability of collision Miss distance Type
CZ-4 DEB SSO 2025-12-10 22:48:30 0.0004588496 225.0 (m) DEBRIS
OBJECT J SSO 2025-10-27 16:41:47 0.000584124 253.0 (m) UNKNOWN
CZ-4B DEB SSO 2025-04-05 19:27:10 0.0001985081 456.0 (m) DEBRIS
CZ-4B DEB SSO 2024-11-09 01:56:07 0.0007378937 438.0 (m) DEBRIS

Associated space launch

SMOS (Soil Moisture and Ocean Salinity) is a earth observation satellite operated by ESA. It is intented to provide new insights into Earth's water cycle and climate.

SL-19 R/B was lifted into orbit during the mission ‘Rokot / Briz-KM | SMOS’, on board a Rokot/Briz-KM space rocket.

The launch took place on Nov. 2, 2009, 1:50 a.m. from 133/3 (133L).

For more information about the launch, click the button.

Launch to space Rokot / Briz-KM | SMOS
Rokot / Briz-KM | SMOS

Agency: N/A

Status: Launch Successful

Launch date: Nov. 2, 2009, 1:50 a.m. UTC

Rocket: Rokot/Briz-KM

Launch pad: 133/3 (133L)

Location: Plesetsk Cosmodrome, Russian Federation

...

Latest news about this satellite

News about space launch
SMOS adds long-term view on carbon stored in forests

Data from ESA’s Soil Moisture and Ocean Salinity (SMOS) mission can be used to estimate how much carbon is stored in forests – and a study has improved our understanding of how reliable this proxy is and how long-term datasets from SMOS can help us to mon...

News about space launch
Proba-2’s glimpse of home

Proba-2’s glimpse of home


Newsletter sign-up

Weekly statistics, charts and insights to help you stay on top of the space industry.